COSMOS 2251 DEB

Satellite information

Favourite Embed

Satellite Type and Status

DEBRISIN ORBIT

Key statistics

Satellite COSMOS 2251 DEB at a glance.

Uptime

11770

Days in orbit

Revolutions

≈ 14.7

Per day

Orbit

LEO

Low Earth Orbit

Inclination

74.0

Latest

Satellite identification and parameters

Extended collection of information and parameters for COSMOS 2251 DEB.

Object identification

Identified? True

Debris? True

Object name: COSMOS 2251 DEB

International designator: 1993-036GZ

Object number (NORAD): 34014

Object ID (CCSDS): 34014

Country: COMMONWEALTH OF INDEPENDENT STATES (CIS)

Current information (Y/N): Y

RCS size: SMALL

Orbital parameters

Period: 97.868 minutes

Inclination: 74.0175 deg

SMA: 7034.856 km

Apoapsis: 685.664 km

Periapsis: 627.779 km

RAAN: 114.8102 deg

Eccentricy: 0.0041142

Argument of periapsis: 278.5422 deg

Mean anomaly: 208.3004 deg

Mean motion: 14.71363231 rev/day

Mean motion (dot): 0.00007396 rev/day2

B* drag term: 0.0011839379 1/REarth

Two-line elements (TLE)

Creation date: Sept. 4, 2025, 10:13 a.m.

Reference frame: TEME

Reference center: EARTH

Epoch: Sept. 4, 2025, 2:36 a.m. UTC

TLE line 0: 0 COSMOS 2251 DEB

TLE line 1: 1 34014U 93036GZ 25247.10851878 .00007396 00000-0 11839-2 0 9990

TLE line 2: 2 34014 74.0175 114.8102 0041142 278.5422 208.3004 14.71363231878378

Live tracking on map

Real-time ground track for satellite COSMOS 2251 DEB.

In-orbit conjunctions

A list of the most updated potential collisions computed for object COSMOS 2251 DEB.

Target Orbit TCA Probability of collision Miss distance Type
FENGYUN 1C DEB SSO 2025-07-30 09:49:30 0.000234343 162.0 (m) DEBRIS
CZ-4C R/B SSO 2024-11-02 13:30:33 0.0008716903 30.0 (m) ROCKET BODY
FENGYUN 1C DEB SSO 2024-09-25 00:00:37 0.0001572656 332.0 (m) DEBRIS

Associated space launch

Military communications satellite. Destroyed in a collision with Iridium 33.

COSMOS 2251 DEB was lifted into orbit during the mission ‘Kosmos-3M | Strela-2M 51’, on board a Kosmos-3M space rocket.

The launch took place on June 16, 1993, 4:17 a.m. from 132/1 (132L).

For more information about the launch, click the button.

Launch to space Kosmos-3M | Strela-2M 51
Kosmos-3M | Strela-2M 51

Agency: N/A

Status: Launch Successful

Launch date: June 16, 1993, 4:17 a.m. UTC

Rocket: Kosmos-3M

Launch pad: 132/1 (132L)

Location: Plesetsk Cosmodrome, Russian Federation

...

Latest news about this satellite

There are no fresh news available about this satellite. Check back as we update our databases every day.


Newsletter sign-up

Weekly statistics, charts and insights to help you stay on top of the space industry.